Showing default

COSMOS 2214, 22185

Orbit data source: Space-Track

COSMOS 2214, 22185 is a payload satellite owned by VKS (CIS) in LEO that was launched on Tue, 20 Oct 1992 UTC via a TSIKLON-3 launch vehicle from the Plesetsk Missile And Space Complex (PKMTR). Payload-class satellites include a variety of spacecraft equipped with specific instruments for various scientific and technological missions. These include communications satellites like Starlink; space stations such as the ISS; scientific satellites like the Hubble; Earth observation satellites from companies like Planet Labs, Umbra, and HawkEye 360; GPS; miniature CubeSats for education and research; and military/defense satellites.

Loading next visibility...
Identifier
22185, 1992-068D
Orbit
LEO
Country
Flag of CISCIS
Related business
Manufacturer
NPO PM
Mission
Defense Communications
Bus & Motor
STRELA-3, Unknown motor
Mass
225 kg wet, 225 kg dry
Launch date (UTC)
1992-10-20 (33 years ago)
Launch vehicle
TSIKLON-3
Launch site
Plesetsk Missile And Space Complex (PKMTR)
Object type
Payload
Rocket body
Debris
Shape & HBR
Cyl, 0.8 m
Radar Cross Section
1.257 m², Large (>1 m²)

Expand to show TLE details & history
Last TLE update: 10 hours ago

TLE from 10 hours ago
0 COSMOS 2214
1 22185U 92068D   25311.98822024  .00000024  00000-0  76002-4 0  9995
2 22185  82.5885 134.4999 0007958 295.3079 219.8067 12.61596695521752
Epoch: 2025-11-07T23:43Z
TLE epoch observation values (Epoch: 2025-11-07T23:43:02.228Z)
Latitude
24.74636°
Longitude
-92.10412°
Altitude
1,423.976 km
Speed
7.149 km/s
True Right ascension
20h 44m 19s
True Declination
24° 37' 37"
Sunlit
Object was in daylight at epoch
Visualization orbit readout
Latitude
Unknown
Longitude
Unknown
Altitude
Unknown
Speed
Unknown
Apparent Right ascension
Unknown
Apparent Declination
Unknown
Sunlit
N/A
Visualization observer readout
Local Sidereal Time
05:53:12
Azimuth
Unknown
Elevation
Unknown
Doppler factor
Unknown
Orbital elements
Apogee altitude
1,419.883 km
Perigee altitude
1,407.482 km
Semi-major axis
7,791.819 km
Eccentricity
0.0008
Inclination
82.5885°
RAAN
134.4999°
Arg. of periapsis
295.3079°
True anomaly
219.74836°
Mean anomaly
219.8067°
Eccentric anomaly
219.77753°
Mean motion
3.15562 °/min
Orbital period
114.08 mins
BSTAR
0.000076002
Loading maneuver chart data...
Computing Atmospheric mass density...
Loading historical data...
Loading historical data...
Loading historical data...
Loading historical data...
Loading historical data...
Loading historical data...
Loading historical data...

Documentation

Showing up to 5 results
|